Time,TemperatureF,DewpointF,PressureIn,WindDirection,WindDirectionDegrees,WindSpeedMPH,WindSpeedGustMPH,Humidity,HourlyPrecipIn,Conditions,Clouds,dailyrainin,SolarRadiationWatts/m^2,SoftwareType,DateUTC
2013-02-28 00:02:00,47.0,43.0,-100.00,West,265,3.0,6.0,86,0.00,,,0.00,0.000000,,2013-02-28 05:02:00,
2013-02-28 00:22:00,46.0,41.0,-100.00,WSW,256,2.0,6.0,84,0.00,,,0.00,0.000000,,2013-02-28 05:22:00,
2013-02-28 00:32:00,46.0,41.0,-100.00,WSW,256,2.0,6.0,84,0.00,,,0.00,0.000000,,2013-02-28 05:32:00,
2013-02-28 00:43:00,46.0,41.0,-100.00,WSW,256,2.0,6.0,84,0.00,,,0.00,0.000000,,2013-02-28 05:43:00,
2013-02-28 00:52:00,46.0,41.0,-100.00,WSW,256,2.0,6.0,84,0.00,,,0.00,0.000000,,2013-02-28 05:52:00,
2013-02-28 01:01:00,46.0,41.0,-100.00,WSW,256,2.0,6.0,84,0.00,,,0.00,0.000000,,2013-02-28 06:01:00,
2013-02-28 01:32:00,45.0,40.0,-100.00,West,269,1.0,5.0,84,0.00,,,0.00,0.000000,,2013-02-28 06:32:00,
2013-02-28 01:42:00,45.0,40.0,-100.00,West,269,1.0,5.0,84,0.00,,,0.00,0.000000,,2013-02-28 06:42:00,
2013-02-28 01:52:00,45.0,40.0,-100.00,West,269,1.0,5.0,84,0.00,,,0.00,0.000000,,2013-02-28 06:52:00,
2013-02-28 02:01:00,45.0,40.0,-100.00,West,269,1.0,5.0,84,0.00,,,0.00,0.000000,,2013-02-28 07:01:00,
2013-02-28 02:22:00,43.0,41.0,-100.00,SSW,211,0.0,2.0,91,0.00,,,0.00,0.000000,,2013-02-28 07:22:00,
2013-02-28 02:32:00,43.0,41.0,-100.00,SSW,211,0.0,2.0,91,0.00,,,0.00,0.000000,,2013-02-28 07:32:00,
2013-02-28 02:42:00,43.0,41.0,-100.00,SSW,211,0.0,2.0,91,0.00,,,0.00,0.000000,,2013-02-28 07:42:00,
2013-02-28 02:52:00,43.0,41.0,-100.00,SSW,211,0.0,2.0,91,0.00,,,0.00,0.000000,,2013-02-28 07:52:00,
2013-02-28 03:01:00,43.0,41.0,-100.00,SSW,211,0.0,2.0,91,0.00,,,0.00,0.000000,,2013-02-28 08:01:00,
2013-02-28 03:32:00,42.0,40.0,-100.00,SSW,206,1.0,3.0,92,0.00,,,0.00,0.000000,,2013-02-28 08:32:00,
2013-02-28 03:42:00,42.0,40.0,-100.00,SSW,206,1.0,3.0,92,0.00,,,0.00,0.000000,,2013-02-28 08:42:00,
2013-02-28 03:53:00,42.0,40.0,-100.00,SSW,206,1.0,3.0,92,0.00,,,0.00,0.000000,,2013-02-28 08:53:00,
2013-02-28 04:03:00,42.0,40.0,-100.00,SSW,206,1.0,3.0,92,0.00,,,0.00,0.000000,,2013-02-28 09:03:00,
2013-02-28 04:32:00,43.0,41.0,-100.00,West,265,2.0,5.0,93,0.00,,,0.00,0.000000,,2013-02-28 09:32:00,
2013-02-28 04:42:00,43.0,41.0,-100.00,West,265,2.0,5.0,93,0.00,,,0.00,0.000000,,2013-02-28 09:42:00,
2013-02-28 04:52:00,43.0,41.0,-100.00,West,265,2.0,5.0,93,0.00,,,0.00,0.000000,,2013-02-28 09:52:00,
2013-02-28 05:02:00,43.0,41.0,-100.00,West,265,2.0,5.0,93,0.00,,,0.00,0.000000,,2013-02-28 10:02:00,
2013-02-28 05:32:00,43.0,41.0,-100.00,WSW,258,2.0,6.0,93,0.00,,,0.00,0.000000,,2013-02-28 10:32:00,
2013-02-28 05:42:00,43.0,41.0,-100.00,WSW,258,2.0,6.0,93,0.00,,,0.00,0.000000,,2013-02-28 10:42:00,
2013-02-28 05:52:00,43.0,41.0,-100.00,WSW,258,2.0,6.0,93,0.00,,,0.00,0.000000,,2013-02-28 10:52:00,
2013-02-28 06:02:00,43.0,41.0,-100.00,WSW,258,2.0,6.0,93,0.00,,,0.00,0.000000,,2013-02-28 11:02:00,
2013-02-28 06:32:00,42.0,40.0,-100.00,WSW,242,2.0,3.0,93,0.00,,,0.00,0.000000,,2013-02-28 11:32:00,
2013-02-28 06:42:00,42.0,40.0,-100.00,WSW,242,2.0,3.0,93,0.00,,,0.00,0.000000,,2013-02-28 11:42:00,
2013-02-28 06:52:00,42.0,40.0,-100.00,WSW,242,2.0,3.0,93,0.00,,,0.00,0.000000,,2013-02-28 11:52:00,
2013-02-28 07:02:00,42.0,40.0,-100.00,WSW,242,2.0,3.0,93,0.00,,,0.00,0.000000,,2013-02-28 12:02:00,
2013-02-28 07:32:00,41.0,39.0,-100.00,WSW,243,1.0,2.0,93,0.00,,,0.00,1.000000,,2013-02-28 12:32:00,
2013-02-28 07:42:00,41.0,39.0,-100.00,WSW,243,1.0,2.0,93,0.00,,,0.00,1.000000,,2013-02-28 12:42:00,
2013-02-28 07:53:00,41.0,39.0,-100.00,WSW,243,1.0,2.0,93,0.00,,,0.00,1.000000,,2013-02-28 12:53:00,
2013-02-28 08:02:00,41.0,39.0,-100.00,WSW,243,1.0,2.0,93,0.00,,,0.00,1.000000,,2013-02-28 13:02:00,
2013-02-28 08:32:00,46.0,44.0,-100.00,WSW,244,2.0,4.0,92,0.00,,,0.00,74.000000,,2013-02-28 13:32:00,
2013-02-28 08:42:00,46.0,44.0,-100.00,WSW,244,2.0,4.0,92,0.00,,,0.00,74.000000,,2013-02-28 13:42:00,
2013-02-28 08:52:00,46.0,44.0,-100.00,WSW,244,2.0,4.0,92,0.00,,,0.00,74.000000,,2013-02-28 13:52:00,
2013-02-28 09:02:00,46.0,44.0,-100.00,WSW,244,2.0,4.0,92,0.00,,,0.00,74.000000,,2013-02-28 14:02:00,
2013-02-28 09:22:00,53.0,46.0,-100.00,West,279,5.0,8.0,76,0.00,,,0.00,294.000000,,2013-02-28 14:22:00,
2013-02-28 09:32:00,53.0,46.0,-100.00,West,279,5.0,8.0,76,0.00,,,0.00,294.000000,,2013-02-28 14:32:00,
2013-02-28 09:42:00,53.0,46.0,-100.00,West,279,5.0,8.0,76,0.00,,,0.00,294.000000,,2013-02-28 14:42:00,
2013-02-28 09:52:00,53.0,46.0,-100.00,West,279,5.0,8.0,76,0.00,,,0.00,294.000000,,2013-02-28 14:52:00,
2013-02-28 10:02:00,53.0,46.0,-100.00,West,279,5.0,8.0,76,0.00,,,0.00,294.000000,,2013-02-28 15:02:00,
2013-02-28 10:32:00,57.0,40.0,-100.00,NW,304,7.0,14.0,52,0.00,,,0.00,505.000000,,2013-02-28 15:32:00,
2013-02-28 10:42:00,57.0,40.0,-100.00,NW,304,7.0,14.0,52,0.00,,,0.00,505.000000,,2013-02-28 15:42:00,
2013-02-28 10:52:00,57.0,40.0,-100.00,NW,304,7.0,14.0,52,0.00,,,0.00,505.000000,,2013-02-28 15:52:00,
2013-02-28 11:02:00,57.0,40.0,-100.00,NW,304,7.0,14.0,52,0.00,,,0.00,505.000000,,2013-02-28 16:02:00,
2013-02-28 11:22:00,59.0,39.0,-100.00,WNW,285,7.0,16.0,47,0.00,,,0.00,686.000000,,2013-02-28 16:22:00,
2013-02-28 11:32:00,59.0,39.0,-100.00,WNW,285,7.0,16.0,47,0.00,,,0.00,686.000000,,2013-02-28 16:32:00,
2013-02-28 11:43:00,59.0,39.0,-100.00,WNW,285,7.0,16.0,47,0.00,,,0.00,686.000000,,2013-02-28 16:43:00,
2013-02-28 11:53:00,59.0,39.0,-100.00,WNW,285,7.0,16.0,47,0.00,,,0.00,686.000000,,2013-02-28 16:53:00,
2013-02-28 12:02:00,59.0,39.0,-100.00,WNW,285,7.0,16.0,47,0.00,,,0.00,686.000000,,2013-02-28 17:02:00,
2013-02-28 12:32:00,61.0,38.0,-100.00,WNW,286,9.0,15.0,43,0.00,,,0.00,827.000000,,2013-02-28 17:32:00,
2013-02-28 12:42:00,61.0,38.0,-100.00,WNW,286,9.0,15.0,43,0.00,,,0.00,827.000000,,2013-02-28 17:42:00,
2013-02-28 12:53:00,61.0,38.0,-100.00,WNW,286,9.0,15.0,43,0.00,,,0.00,827.000000,,2013-02-28 17:53:00,
2013-02-28 13:02:00,61.0,38.0,-100.00,WNW,286,9.0,15.0,43,0.00,,,0.00,827.000000,,2013-02-28 18:02:00,
2013-02-28 13:32:00,62.0,39.0,-100.00,West,281,11.0,20.0,42,0.00,,,0.00,872.000000,,2013-02-28 18:32:00,
2013-02-28 13:42:00,62.0,39.0,-100.00,West,281,11.0,20.0,42,0.00,,,0.00,872.000000,,2013-02-28 18:42:00,
2013-02-28 13:52:00,62.0,39.0,-100.00,West,281,11.0,20.0,42,0.00,,,0.00,872.000000,,2013-02-28 18:52:00,
2013-02-28 14:02:00,62.0,39.0,-100.00,West,281,11.0,20.0,42,0.00,,,0.00,872.000000,,2013-02-28 19:02:00,
2013-02-28 14:32:00,65.0,39.0,-100.00,West,266,10.0,23.0,38,0.00,,,0.00,875.000000,,2013-02-28 19:32:00,
2013-02-28 14:42:00,65.0,39.0,-100.00,West,266,10.0,23.0,38,0.00,,,0.00,875.000000,,2013-02-28 19:42:00,
2013-02-28 14:52:00,65.0,39.0,-100.00,West,266,10.0,23.0,38,0.00,,,0.00,875.000000,,2013-02-28 19:52:00,
2013-02-28 15:01:00,65.0,39.0,-100.00,West,266,10.0,23.0,38,0.00,,,0.00,875.000000,,2013-02-28 20:01:00,
2013-02-28 15:22:00,65.0,36.0,-100.00,WNW,286,12.0,25.0,34,0.00,,,0.00,789.000000,,2013-02-28 20:22:00,
2013-02-28 15:32:00,65.0,36.0,-100.00,WNW,286,12.0,25.0,34,0.00,,,0.00,789.000000,,2013-02-28 20:32:00,
2013-02-28 15:42:00,65.0,36.0,-100.00,WNW,286,12.0,25.0,34,0.00,,,0.00,789.000000,,2013-02-28 20:42:00,
2013-02-28 15:52:00,65.0,36.0,-100.00,WNW,286,12.0,25.0,34,0.00,,,0.00,789.000000,,2013-02-28 20:52:00,
2013-02-28 16:02:00,65.0,36.0,-100.00,WNW,286,12.0,25.0,34,0.00,,,0.00,789.000000,,2013-02-28 21:02:00,
2013-02-28 16:32:00,65.0,34.0,-100.00,WNW,282,10.0,19.0,31,0.00,,,0.00,626.000000,,2013-02-28 21:32:00,
2013-02-28 16:42:00,65.0,34.0,-100.00,WNW,282,10.0,19.0,31,0.00,,,0.00,626.000000,,2013-02-28 21:42:00,
2013-02-28 16:52:00,65.0,34.0,-100.00,WNW,282,10.0,19.0,31,0.00,,,0.00,626.000000,,2013-02-28 21:52:00,
2013-02-28 17:01:00,65.0,34.0,-100.00,WNW,282,10.0,19.0,31,0.00,,,0.00,626.000000,,2013-02-28 22:01:00,
2013-02-28 17:22:00,64.0,30.0,-100.00,WNW,283,7.0,17.0,28,0.00,,,0.00,401.000000,,2013-02-28 22:22:00,
2013-02-28 17:32:00,64.0,30.0,-100.00,WNW,283,7.0,17.0,28,0.00,,,0.00,401.000000,,2013-02-28 22:32:00,
2013-02-28 17:42:00,64.0,30.0,-100.00,WNW,283,7.0,17.0,28,0.00,,,0.00,401.000000,,2013-02-28 22:42:00,
2013-02-28 17:52:00,64.0,30.0,-100.00,WNW,283,7.0,17.0,28,0.00,,,0.00,401.000000,,2013-02-28 22:52:00,
2013-02-28 18:01:00,64.0,30.0,-100.00,WNW,283,7.0,17.0,28,0.00,,,0.00,401.000000,,2013-02-28 23:01:00,
2013-02-28 18:32:00,60.0,30.0,-100.00,WNW,293,8.0,15.0,32,0.00,,,0.00,160.000000,,2013-02-28 23:32:00,
2013-02-28 18:42:00,60.0,30.0,-100.00,WNW,293,8.0,15.0,32,0.00,,,0.00,160.000000,,2013-02-28 23:42:00,
2013-02-28 18:53:00,60.0,30.0,-100.00,WNW,293,8.0,15.0,32,0.00,,,0.00,160.000000,,2013-02-28 23:53:00,
2013-02-28 19:02:00,60.0,30.0,-100.00,WNW,293,8.0,15.0,32,0.00,,,0.00,160.000000,,2013-03-01 00:02:00,
2013-02-28 19:23:00,55.0,30.0,-100.00,West,266,3.0,11.0,38,0.00,,,0.00,3.000000,,2013-03-01 00:23:00,
2013-02-28 19:32:00,55.0,30.0,-100.00,West,266,3.0,11.0,38,0.00,,,0.00,3.000000,,2013-03-01 00:32:00,
2013-02-28 19:42:00,55.0,30.0,-100.00,West,266,3.0,11.0,38,0.00,,,0.00,3.000000,,2013-03-01 00:42:00,
2013-02-28 19:52:00,55.0,30.0,-100.00,West,266,3.0,11.0,38,0.00,,,0.00,3.000000,,2013-03-01 00:52:00,
2013-02-28 20:01:00,55.0,30.0,-100.00,West,266,3.0,11.0,38,0.00,,,0.00,3.000000,,2013-03-01 01:01:00,
2013-02-28 20:32:00,53.0,33.0,-100.00,WNW,291,2.0,7.0,47,0.00,,,0.00,0.000000,,2013-03-01 01:32:00,
2013-02-28 20:42:00,53.0,33.0,-100.00,WNW,291,2.0,7.0,47,0.00,,,0.00,0.000000,,2013-03-01 01:42:00,
2013-02-28 20:52:00,53.0,33.0,-100.00,WNW,291,2.0,7.0,47,0.00,,,0.00,0.000000,,2013-03-01 01:52:00,
2013-02-28 21:01:00,53.0,33.0,-100.00,WNW,291,2.0,7.0,47,0.00,,,0.00,0.000000,,2013-03-01 02:01:00,
2013-02-28 21:22:00,50.0,39.0,-100.00,WSW,248,2.0,3.0,67,0.00,,,0.00,0.000000,,2013-03-01 02:22:00,
2013-02-28 21:32:00,50.0,39.0,-100.00,WSW,248,2.0,3.0,67,0.00,,,0.00,0.000000,,2013-03-01 02:32:00,
2013-02-28 21:42:00,50.0,39.0,-100.00,WSW,248,2.0,3.0,67,0.00,,,0.00,0.000000,,2013-03-01 02:42:00,
2013-02-28 21:52:00,50.0,39.0,-100.00,WSW,248,2.0,3.0,67,0.00,,,0.00,0.000000,,2013-03-01 02:52:00,
2013-02-28 22:02:00,50.0,39.0,-100.00,WSW,248,2.0,3.0,67,0.00,,,0.00,0.000000,,2013-03-01 03:02:00,
2013-02-28 22:32:00,49.0,39.0,-100.00,WSW,258,1.0,3.0,68,0.00,,,0.00,0.000000,,2013-03-01 03:32:00,
2013-02-28 22:42:00,49.0,39.0,-100.00,WSW,258,1.0,3.0,68,0.00,,,0.00,0.000000,,2013-03-01 03:42:00,
2013-02-28 22:52:00,49.0,39.0,-100.00,WSW,258,1.0,3.0,68,0.00,,,0.00,0.000000,,2013-03-01 03:52:00,
2013-02-28 23:01:00,49.0,39.0,-100.00,WSW,258,1.0,3.0,68,0.00,,,0.00,0.000000,,2013-03-01 04:01:00,
2013-02-28 23:42:00,50.0,38.0,-100.00,WNW,285,3.0,6.0,64,0.00,,,0.00,0.000000,,2013-03-01 04:42:00,
2013-02-28 23:52:00,50.0,38.0,-100.00,WNW,285,3.0,6.0,64,0.00,,,0.00,0.000000,,2013-03-01 04:52:00,